Location: Godzisko
(49.9648°N, 19.4576°E)
Time: 02:25:26
(UTC+00:00)

Cosmos 1777 Rocket - Pass Details

Date: 20 April 2021
Orbit: 759 x 775 km, 74.0° (Epoch: 07 May)

Event Time Altitude Azimuth Distance (km) Brightness Sun altitude
Exits shadow 00:23:19 69° 243° (WSW) 817 3.9 -24.6°
Maximum altitude 00:23:50 77° 295° (WNW) 787 3.9 -24.5°
Drops below altitude 10° 00:29:04 10° 22° (NNE) 2,302 7.5 -24.1°
Sets 00:31:27 0° 24° (NNE) 3,231 8.7 -23.9°
